Location: Newark
(36.0797°N, 3.9744°E)
Time: 20:15:19
(UTC+00:00)

Vanguard 2 - Pass Details

Date: 12 December 2019
Orbit: 553 x 2938 km, 32.9° (Epoch: 28 January)

Event Time Altitude Azimuth Distance (km) Brightness Sun altitude
Exits shadow 00:24:01 20° 85° (E) 4,966 11.6 -73.5°
Drops below altitude 10° 00:27:53 10° 81° (E) 5,760 12.0 -73.0°
Sets 00:32:23 0° 78° (ENE) 6,710 12.5 -72.4°
